| time (UTC) | temp F | wind direction | speed MPH | gust MPH | rain 1hr in | rain 24hr in | rain mn in | humidity % | barometer mb |
| 20260509191504 | 63 | 94 | 0.0 | 2.0 | 0.00 | 0.00 | 0.00 | 65 | 1019.8 |
| 20260509190006 | 63 | 144 | 0.0 | 2.0 | 0.00 | 0.00 | 0.00 | 64 | 1019.8 |
| 20260509184503 | 62 | 148 | 0.0 | 2.0 | 0.00 | 0.00 | 0.00 | 65 | 1020.0 |
| 20260509183002 | 62 | 88 | 1.0 | 3.0 | 0.00 | 0.00 | 0.00 | 64 | 1020.1 |
| 20260509181502 | 61 | 85 | 0.0 | 2.0 | 0.00 | 0.00 | 0.00 | 65 | 1020.1 |
| 20260509180006 | 61 | 112 | 0.0 | 2.0 | 0.00 | 0.00 | 0.00 | 66 | 1020.1 |
| 20260509171503 | 60 | 114 | 0.0 | 2.0 | 0.00 | 0.00 | 0.00 | 67 | 1020.4 |
| 20260509170006 | 59 | 107 | 0.0 | 2.0 | 0.00 | 0.00 | 0.00 | 68 | 1020.4 |
| 20260509163005 | 58 | 11 | 0.0 | 2.0 | 0.00 | 0.00 | 0.00 | 73 | 1020.7 |
| 20260509160005 | 57 | 102 | 1.0 | 3.0 | 0.00 | 0.00 | 0.00 | 74 | 1021.0 |
| 20260509154504 | 55 | 166 | 0.0 | 2.0 | 0.00 | 0.00 | 0.00 | 77 | 1021.3 |
| 20260509153003 | 54 | 66 | 0.0 | 2.0 | 0.00 | 0.00 | 0.00 | 81 | 1021.3 |
| 20260509144503 | 49 | 16 | 0.0 | 0.0 | 0.00 | 0.00 | 0.00 | 89 | 1021.7 |
| 20260509143003 | 49 | 16 | 0.0 | 0.0 | 0.00 | 0.00 | 0.00 | 89 | 1021.7 |
| 20260509141502 | 48 | 16 | 0.0 | 0.0 | 0.00 | 0.00 | 0.00 | 88 | 1021.8 |
| 20260509140005 | 48 | 16 | 0.0 | 0.0 | 0.00 | 0.00 | 0.00 | 88 | 1021.9 |
| 20260509134504 | 48 | 16 | 0.0 | 0.0 | 0.00 | 0.00 | 0.00 | 88 | 1022.0 |
| 20260509133005 | 48 | 16 | 0.0 | 0.0 | 0.00 | 0.00 | 0.00 | 87 | 1022.1 |
| 20260509131504 | 48 | 16 | 0.0 | 0.0 | 0.00 | 0.00 | 0.00 | 87 | 1022.1 |
| 20260509130007 | 48 | 16 | 0.0 | 0.0 | 0.00 | 0.00 | 0.00 | 86 | 1021.9 |
| 20260509124501 | 49 | 16 | 0.0 | 0.0 | 0.00 | 0.00 | 0.00 | 86 | 1021.9 |
| 20260509123002 | 49 | 16 | 0.0 | 0.0 | 0.00 | 0.00 | 0.00 | 85 | 1021.9 |
| 20260509121501 | 50 | 16 | 0.0 | 0.0 | 0.00 | 0.00 | 0.00 | 85 | 1021.9 |
| 20260509114503 | 51 | 16 | 0.0 | 0.0 | 0.00 | 0.00 | 0.00 | 84 | 1022.0 |
| 20260509113004 | 51 | 16 | 0.0 | 0.0 | 0.00 | 0.00 | 0.00 | 83 | 1022.0 |
| 20260509111501 | 51 | 16 | 0.0 | 0.0 | 0.00 | 0.00 | 0.00 | 82 | 1022.0 |
| 20260509110004 | 52 | 16 | 0.0 | 0.0 | 0.00 | 0.00 | 0.00 | 82 | 1022.0 |
| 20260509104502 | 53 | 16 | 0.0 | 0.0 | 0.00 | 0.00 | 0.00 | 81 | 1022.1 |
| 20260509103003 | 53 | 16 | 0.0 | 0.0 | 0.00 | 0.00 | 0.00 | 79 | 1022.1 |
| 20260509101503 | 54 | 16 | 0.0 | 0.0 | 0.00 | 0.00 | 0.00 | 79 | 1022.2 |
| 20260509100006 | 54 | 16 | 0.0 | 0.0 | 0.00 | 0.00 | 0.00 | 78 | 1022.4 |
| 20260509094501 | 54 | 16 | 0.0 | 0.0 | 0.00 | 0.00 | 0.00 | 78 | 1022.5 |
| 20260509093001 | 54 | 16 | 0.0 | 0.0 | 0.00 | 0.00 | 0.00 | 78 | 1022.6 |
| 20260509091502 | 54 | 16 | 0.0 | 0.0 | 0.00 | 0.00 | 0.00 | 77 | 1022.6 |
| 20260509090006 | 54 | 16 | 0.0 | 0.0 | 0.00 | 0.00 | 0.00 | 77 | 1022.6 |
| 20260509084502 | 55 | 16 | 0.0 | 0.0 | 0.00 | 0.00 | 0.00 | 77 | 1022.7 |
| 20260509083001 | 55 | 16 | 0.0 | 0.0 | 0.00 | 0.00 | 0.00 | 77 | 1022.7 |
| 20260509081503 | 55 | 16 | 0.0 | 0.0 | 0.00 | 0.00 | 0.00 | 77 | 1022.7 |
| 20260509080005 | 55 | 16 | 0.0 | 0.0 | 0.00 | 0.00 | 0.00 | 76 | 1022.7 |
| 20260509074505 | 55 | 16 | 0.0 | 0.0 | 0.00 | 0.00 | 0.00 | 76 | 1022.6 |
| 20260509073006 | 55 | 16 | 0.0 | 0.0 | 0.00 | 0.00 | 0.00 | 76 | 1022.7 |
| 20260509071504 | 55 | 16 | 0.0 | 0.0 | 0.00 | 0.00 | 0.00 | 76 | 1022.6 |
| 20260509064504 | 55 | 16 | 0.0 | 0.0 | 0.00 | 0.00 | 0.00 | 76 | 1022.6 |
| 20260509063005 | 55 | 16 | 0.0 | 0.0 | 0.00 | 0.00 | 0.00 | 76 | 1022.5 |
| 20260509061505 | 55 | 16 | 0.0 | 0.0 | 0.00 | 0.00 | 0.00 | 74 | 1022.5 |
| 20260509060006 | 55 | 16 | 0.0 | 0.0 | 0.00 | 0.00 | 0.00 | 74 | 1022.3 |
| 20260509054505 | 55 | 16 | 0.0 | 0.0 | 0.00 | 0.00 | 0.00 | 74 | 1022.4 |
| 20260509050006 | 55 | 16 | 0.0 | 0.0 | 0.00 | 0.00 | 0.00 | 73 | 1022.2 |
| 20260509043005 | 55 | 16 | 0.0 | 0.0 | 0.00 | 0.00 | 0.00 | 71 | 1022.2 |
| 20260509041505 | 56 | 16 | 0.0 | 0.0 | 0.00 | 0.00 | 0.00 | 70 | 1022.0 |
| 20260509040005 | 56 | 16 | 0.0 | 0.0 | 0.00 | 0.00 | 0.00 | 69 | 1021.9 |
| 20260509034504 | 57 | 16 | 0.0 | 2.0 | 0.00 | 0.00 | 0.00 | 67 | 1021.7 |
| 20260509031505 | 59 | 16 | 0.0 | 2.0 | 0.00 | 0.00 | 0.00 | 64 | 1021.3 |
| 20260509024504 | 59 | 16 | 0.0 | 0.0 | 0.00 | 0.00 | 0.00 | 62 | 1021.0 |
| 20260509021504 | 60 | 16 | 0.0 | 2.0 | 0.00 | 0.00 | 0.00 | 59 | 1020.9 |
| 20260509020005 | 61 | 16 | 0.0 | 2.0 | 0.00 | 0.00 | 0.00 | 58 | 1020.9 |
| 20260509014504 | 61 | 16 | 0.0 | 2.0 | 0.00 | 0.00 | 0.00 | 58 | 1020.9 |
| 20260509011504 | 62 | 21 | 0.0 | 2.0 | 0.00 | 0.00 | 0.00 | 55 | 1021.0 |
| 20260509010004 | 62 | 21 | 0.0 | 2.0 | 0.00 | 0.00 | 0.00 | 55 | 1021.0 |
| 20260509003006 | 61 | 304 | 0.0 | 2.0 | 0.00 | 0.00 | 0.00 | 55 | 1021.0 |
| 20260509001503 | 62 | 304 | 0.0 | 2.0 | 0.00 | 0.00 | 0.00 | 55 | 1021.0 |
| 20260509000005 | 62 | 304 | 0.0 | 2.0 | 0.00 | 0.00 | 0.00 | 53 | 1021.0 |
| 20260508233003 | 61 | 21 | 0.0 | 2.0 | 0.00 | 0.00 | 0.00 | 54 | 1020.8 |
| 20260508231503 | 62 | 211 | 0.0 | 3.0 | 0.00 | 0.00 | 0.00 | 52 | 1020.8 |
| 20260508223004 | 62 | 25 | 0.0 | 3.0 | 0.00 | 0.00 | 0.00 | 53 | 1021.0 |
| 20260508220008 | 60 | 206 | 0.0 | 2.0 | 0.00 | 0.00 | 0.00 | 55 | 1020.9 |
| 20260508214504 | 60 | 185 | 0.0 | 2.0 | 0.00 | 0.00 | 0.00 | 54 | 1021.1 |
| 20260508213005 | 60 | 40 | 0.0 | 2.0 | 0.00 | 0.00 | 0.00 | 54 | 1021.0 |
| 20260508211504 | 59 | 31 | 0.0 | 2.0 | 0.00 | 0.00 | 0.00 | 56 | 1021.1 |
| 20260508210005 | 59 | 7 | 1.0 | 2.0 | 0.00 | 0.00 | 0.00 | 57 | 1021.0 |
| 20260508204502 | 59 | 360 | 1.0 | 3.0 | 0.00 | 0.00 | 0.00 | 56 | 1020.8 |
| 20260508201503 | 58 | 329 | 0.0 | 2.0 | 0.00 | 0.00 | 0.00 | 57 | 1020.7 |
| 20260508200006 | 58 | 239 | 1.0 | 4.0 | 0.00 | 0.00 | 0.00 | 57 | 1020.8 |
| 20260508194504 | 58 | 21 | 1.0 | 4.0 | 0.00 | 0.00 | 0.00 | 59 | 1020.7 |
| 20260508193005 | 57 | 200 | 0.0 | 2.0 | 0.00 | 0.00 | 0.00 | 62 | 1020.7 |